Information on these data can be found in provided Readme document
Contact Info: Zachary Fasnacht (zachary.fasnacht@ssaihq.com); Nickolay Krotkov (nickolay.a.krotkov@nasa.gov); Lok Lamsal (lok.lamsal@nasa.gov)

FillValue: -999.
ScaleFactor: 1e15
Units: molecules/cm^2

Date(yyyy-mm-dd),City,Country,LonCenter,LatCenter,BoundingCoordinates,Median,Q1,Q3,Mean,Baseline_Median,Baseline_Q1,Baseline_Q3,Baseline_Mean,NumGoodSamples,NumTotalSamples
2015-01-01,AbuDhabi,U.A.E.,54.3773,24.4539,[53.8773 23.9539 54.8773 24.9539],2.239,1.36,4.311,3.016,2.622,1.498,4.644,3.411,246.0,533.0
2015-01-02,AbuDhabi,U.A.E.,54.3773,24.4539,[53.8773 23.9539 54.8773 24.9539],2.58,1.376,4.824,3.286,2.731,1.534,4.923,3.546,213.0,537.0
2015-01-03,AbuDhabi,U.A.E.,54.3773,24.4539,[53.8773 23.9539 54.8773 24.9539],2.58,1.555,4.846,3.365,2.617,1.48,4.615,3.33,252.0,535.0
2015-01-04,AbuDhabi,U.A.E.,54.3773,24.4539,[53.8773 23.9539 54.8773 24.9539],2.58,1.746,4.716,3.41,2.83,1.582,4.78,3.523,234.0,564.0
2015-01-05,AbuDhabi,U.A.E.,54.3773,24.4539,[53.8773 23.9539 54.8773 24.9539],2.58,1.746,4.379,3.318,2.692,1.574,4.411,3.378,222.0,543.0
2015-01-06,AbuDhabi,U.A.E.,54.3773,24.4539,[53.8773 23.9539 54.8773 24.9539],2.544,1.547,4.379,3.234,2.594,1.519,4.242,3.289,250.0,553.0
2015-01-07,AbuDhabi,U.A.E.,54.3773,24.4539,[53.8773 23.9539 54.8773 24.9539],2.405,1.468,4.098,3.08,2.529,1.456,4.227,3.211,224.0,551.0
2015-01-08,AbuDhabi,U.A.E.,54.3773,24.4539,[53.8773 23.9539 54.8773 24.9539],2.58,1.555,4.655,3.52,2.54,1.443,4.269,3.188,249.0,541.0
2015-01-09,AbuDhabi,U.A.E.,54.3773,24.4539,[53.8773 23.9539 54.8773 24.9539],2.575,1.547,5.042,3.624,2.436,1.318,4.198,3.078,223.0,553.0
2015-01-10,AbuDhabi,U.A.E.,54.3773,24.4539,[53.8773 23.9539 54.8773 24.9539],2.575,1.547,5.042,3.624,2.382,1.3,4.162,3.035,223.0,502.0
2015-01-11,AbuDhabi,U.A.E.,54.3773,24.4539,[53.8773 23.9539 54.8773 24.9539],2.861,1.87,5.596,4.11,2.448,1.366,4.106,3.157,195.0,521.0
2015-01-12,AbuDhabi,U.A.E.,54.3773,24.4539,[53.8773 23.9539 54.8773 24.9539],3.016,1.96,5.596,4.156,2.485,1.378,4.069,3.163,162.0,509.0
2015-01-13,AbuDhabi,U.A.E.,54.3773,24.4539,[53.8773 23.9539 54.8773 24.9539],2.832,1.896,5.519,4.046,2.471,1.396,4.323,3.272,180.0,523.0
2015-01-14,AbuDhabi,U.A.E.,54.3773,24.4539,[53.8773 23.9539 54.8773 24.9539],2.627,1.842,4.874,3.852,2.448,1.399,4.274,3.295,159.0,522.0
2015-01-15,AbuDhabi,U.A.E.,54.3773,24.4539,[53.8773 23.9539 54.8773 24.9539],2.789,1.845,5.408,3.992,2.555,1.484,4.451,3.384,184.0,516.0
2015-01-16,AbuDhabi,U.A.E.,54.3773,24.4539,[53.8773 23.9539 54.8773 24.9539],2.694,1.96,4.874,4.014,2.597,1.467,4.601,3.537,165.0,529.0
2015-01-17,AbuDhabi,U.A.E.,54.3773,24.4539,[53.8773 23.9539 54.8773 24.9539],2.832,1.96,5.519,4.168,2.644,1.486,4.683,3.545,185.0,505.0
2015-01-18,AbuDhabi,U.A.E.,54.3773,24.4539,[53.8773 23.9539 54.8773 24.9539],2.832,1.791,5.599,4.425,2.628,1.435,4.632,3.544,146.0,509.0
2015-01-19,AbuDhabi,U.A.E.,54.3773,24.4539,[53.8773 23.9539 54.8773 24.9539],3.794,2.049,7.524,5.148,2.602,1.431,4.955,3.504,185.0,506.0
2015-01-20,AbuDhabi,U.A.E.,54.3773,24.4539,[53.8773 23.9539 54.8773 24.9539],4.508,2.405,8.118,5.63,2.89,1.512,5.212,3.753,167.0,535.0
2015-01-21,AbuDhabi,U.A.E.,54.3773,24.4539,[53.8773 23.9539 54.8773 24.9539],4.427,2.335,7.832,5.579,2.866,1.502,5.207,3.77,159.0,518.0
2015-01-22,AbuDhabi,U.A.E.,54.3773,24.4539,[53.8773 23.9539 54.8773 24.9539],4.353,2.061,7.525,5.396,2.761,1.469,4.932,3.68,190.0,526.0
2015-01-23,AbuDhabi,U.A.E.,54.3773,24.4539,[53.8773 23.9539 54.8773 24.9539],4.174,2.049,7.226,4.957,2.688,1.434,5.078,3.595,165.0,522.0
2015-01-24,AbuDhabi,U.A.E.,54.3773,24.4539,[53.8773 23.9539 54.8773 24.9539],3.794,1.925,6.49,4.6,2.772,1.505,4.848,3.593,190.0,509.0
2015-01-25,AbuDhabi,U.A.E.,54.3773,24.4539,[53.8773 23.9539 54.8773 24.9539],3.794,1.925,6.49,4.6,2.706,1.507,4.81,3.611,190.0,553.0
2015-01-26,AbuDhabi,U.A.E.,54.3773,24.4539,[53.8773 23.9539 54.8773 24.9539],2.668,1.687,5.698,4.071,2.605,1.514,4.812,3.578,216.0,534.0
2015-01-27,AbuDhabi,U.A.E.,54.3773,24.4539,[53.8773 23.9539 54.8773 24.9539],2.668,1.687,5.698,4.071,2.766,1.542,4.858,3.604,216.0,553.0
2015-01-28,AbuDhabi,U.A.E.,54.3773,24.4539,[53.8773 23.9539 54.8773 24.9539],2.804,1.687,5.508,3.938,2.734,1.537,4.69,3.496,219.0,541.0
2015-01-29,AbuDhabi,U.A.E.,54.3773,24.4539,[53.8773 23.9539 54.8773 24.9539],2.668,1.573,5.481,3.816,2.778,1.52,4.811,3.517,249.0,553.0
2015-01-30,AbuDhabi,U.A.E.,54.3773,24.4539,[53.8773 23.9539 54.8773 24.9539],2.659,1.479,5.336,3.68,2.971,1.544,5.056,3.679,233.0,550.0
2015-01-31,AbuDhabi,U.A.E.,54.3773,24.4539,[53.8773 23.9539 54.8773 24.9539],2.496,1.458,4.698,3.547,2.772,1.506,4.876,3.482,258.0,546.0
2015-02-01,AbuDhabi,U.A.E.,54.3773,24.4539,[53.8773 23.9539 54.8773 24.9539],2.3,1.447,4.634,3.397,2.707,1.511,4.808,3.476,238.0,561.0
2015-02-02,AbuDhabi,U.A.E.,54.3773,24.4539,[53.8773 23.9539 54.8773 24.9539],2.237,1.278,4.392,3.265,2.67,1.496,4.872,3.494,257.0,537.0
2015-02-03,AbuDhabi,U.A.E.,54.3773,24.4539,[53.8773 23.9539 54.8773 24.9539],1.853,1.004,3.225,2.378,2.63,1.442,4.633,3.284,218.0,540.0
2015-02-04,AbuDhabi,U.A.E.,54.3773,24.4539,[53.8773 23.9539 54.8773 24.9539],1.773,0.955,2.942,2.209,2.378,1.36,4.083,3.017,257.0,535.0
2015-02-05,AbuDhabi,U.A.E.,54.3773,24.4539,[53.8773 23.9539 54.8773 24.9539],1.707,0.93,2.835,2.157,2.456,1.383,4.273,3.127,237.0,563.0
2015-02-06,AbuDhabi,U.A.E.,54.3773,24.4539,[53.8773 23.9539 54.8773 24.9539],1.573,0.89,2.778,1.978,2.398,1.421,4.213,3.133,226.0,546.0
2015-02-07,AbuDhabi,U.A.E.,54.3773,24.4539,[53.8773 23.9539 54.8773 24.9539],1.508,0.806,2.804,2.018,2.457,1.418,4.421,3.166,258.0,556.0
2015-02-08,AbuDhabi,U.A.E.,54.3773,24.4539,[53.8773 23.9539 54.8773 24.9539],1.537,0.86,2.778,2.023,2.528,1.391,4.43,3.196,233.0,554.0
2015-02-09,AbuDhabi,U.A.E.,54.3773,24.4539,[53.8773 23.9539 54.8773 24.9539],1.67,0.906,2.835,2.192,2.555,1.344,4.609,3.218,257.0,540.0
2015-02-10,AbuDhabi,U.A.E.,54.3773,24.4539,[53.8773 23.9539 54.8773 24.9539],1.73,0.891,3.119,2.286,2.643,1.383,4.652,3.295,231.0,549.0
2015-02-11,AbuDhabi,U.A.E.,54.3773,24.4539,[53.8773 23.9539 54.8773 24.9539],1.73,0.891,3.119,2.286,2.52,1.296,4.554,3.206,231.0,498.0
2015-02-12,AbuDhabi,U.A.E.,54.3773,24.4539,[53.8773 23.9539 54.8773 24.9539],1.424,0.704,2.616,2.037,2.662,1.402,4.513,3.278,201.0,517.0
2015-02-13,AbuDhabi,U.A.E.,54.3773,24.4539,[53.8773 23.9539 54.8773 24.9539],1.193,0.68,2.543,1.908,2.55,1.328,4.368,3.192,184.0,508.0
2015-02-14,AbuDhabi,U.A.E.,54.3773,24.4539,[53.8773 23.9539 54.8773 24.9539],1.193,0.657,2.531,1.889,2.507,1.297,3.957,2.975,210.0,521.0
2015-02-15,AbuDhabi,U.A.E.,54.3773,24.4539,[53.8773 23.9539 54.8773 24.9539],1.193,0.68,2.489,1.905,2.471,1.24,4.027,3.001,185.0,518.0
2015-02-16,AbuDhabi,U.A.E.,54.3773,24.4539,[53.8773 23.9539 54.8773 24.9539],1.16,0.618,2.237,1.847,2.444,1.228,3.878,2.946,204.0,512.0
2015-02-17,AbuDhabi,U.A.E.,54.3773,24.4539,[53.8773 23.9539 54.8773 24.9539],1.137,0.567,2.181,1.848,2.519,1.234,3.977,2.946,185.0,525.0
2015-02-18,AbuDhabi,U.A.E.,54.3773,24.4539,[53.8773 23.9539 54.8773 24.9539],1.273,0.68,2.658,2.291,2.515,1.301,4.053,3.039,205.0,502.0
2015-02-19,AbuDhabi,U.A.E.,54.3773,24.4539,[53.8773 23.9539 54.8773 24.9539],1.331,0.69,3.492,2.587,2.711,1.39,4.433,3.237,166.0,508.0
2015-02-20,AbuDhabi,U.A.E.,54.3773,24.4539,[53.8773 23.9539 54.8773 24.9539],1.468,0.799,2.671,2.412,2.633,1.423,3.949,3.105,191.0,502.0
2015-02-21,AbuDhabi,U.A.E.,54.3773,24.4539,[53.8773 23.9539 54.8773 24.9539],1.507,0.915,2.933,2.588,2.749,1.553,4.334,3.337,171.0,531.0
2015-02-22,AbuDhabi,U.A.E.,54.3773,24.4539,[53.8773 23.9539 54.8773 24.9539],1.802,1.095,3.748,2.761,2.722,1.533,4.484,3.36,159.0,514.0
2015-02-23,AbuDhabi,U.A.E.,54.3773,24.4539,[53.8773 23.9539 54.8773 24.9539],1.756,1.089,3.748,2.758,2.674,1.579,4.151,3.301,189.0,523.0
2015-02-24,AbuDhabi,U.A.E.,54.3773,24.4539,[53.8773 23.9539 54.8773 24.9539],1.653,0.982,3.299,2.548,2.725,1.586,4.111,3.251,165.0,523.0
2015-02-25,AbuDhabi,U.A.E.,54.3773,24.4539,[53.8773 23.9539 54.8773 24.9539],1.744,1.079,3.517,2.653,2.635,1.608,4.124,3.183,191.0,512.0
2015-02-26,AbuDhabi,U.A.E.,54.3773,24.4539,[53.8773 23.9539 54.8773 24.9539],1.744,1.079,3.517,2.653,2.705,1.632,4.252,3.27,191.0,556.0
2015-02-27,AbuDhabi,U.A.E.,54.3773,24.4539,[53.8773 23.9539 54.8773 24.9539],1.744,1.079,3.517,2.649,2.609,1.662,4.357,3.321,192.0,538.0
2015-02-28,AbuDhabi,U.A.E.,54.3773,24.4539,[53.8773 23.9539 54.8773 24.9539],1.963,1.263,4.576,2.938,2.891,1.754,4.553,3.483,176.0,557.0
2015-03-01,AbuDhabi,U.A.E.,54.3773,24.4539,[53.8773 23.9539 54.8773 24.9539],3.092,1.652,5.155,3.485,2.955,1.668,4.53,3.459,171.0,547.0
2015-03-02,AbuDhabi,U.A.E.,54.3773,24.4539,[53.8773 23.9539 54.8773 24.9539],2.719,1.522,5.033,3.482,2.844,1.676,4.529,3.438,205.0,561.0
2015-03-03,AbuDhabi,U.A.E.,54.3773,24.4539,[53.8773 23.9539 54.8773 24.9539],3.092,1.675,5.155,3.605,2.84,1.631,4.308,3.341,195.0,558.0
2015-03-04,AbuDhabi,U.A.E.,54.3773,24.4539,[53.8773 23.9539 54.8773 24.9539],2.719,1.507,4.928,3.432,2.615,1.583,4.081,3.173,221.0,551.0
2015-03-05,AbuDhabi,U.A.E.,54.3773,24.4539,[53.8773 23.9539 54.8773 24.9539],2.464,1.465,4.608,3.164,2.496,1.518,3.933,3.058,201.0,563.0
2015-03-06,AbuDhabi,U.A.E.,54.3773,24.4539,[53.8773 23.9539 54.8773 24.9539],2.512,1.461,4.923,3.214,2.415,1.475,3.916,2.992,220.0,539.0
2015-03-07,AbuDhabi,U.A.E.,54.3773,24.4539,[53.8773 23.9539 54.8773 24.9539],3.197,1.592,5.155,3.483,2.552,1.499,3.947,2.997,195.0,546.0
2015-03-08,AbuDhabi,U.A.E.,54.3773,24.4539,[53.8773 23.9539 54.8773 24.9539],2.909,1.664,4.928,3.352,2.468,1.513,3.869,2.888,225.0,540.0
2015-03-09,AbuDhabi,U.A.E.,54.3773,24.4539,[53.8773 23.9539 54.8773 24.9539],2.719,1.652,4.928,3.308,2.511,1.553,3.96,3.056,205.0,568.0
2015-03-10,AbuDhabi,U.A.E.,54.3773,24.4539,[53.8773 23.9539 54.8773 24.9539],2.584,1.446,4.547,3.144,2.495,1.467,3.995,3.069,193.0,550.0
2015-03-11,AbuDhabi,U.A.E.,54.3773,24.4539,[53.8773 23.9539 54.8773 24.9539],2.48,1.327,4.405,2.995,2.46,1.441,4.025,3.109,223.0,557.0
2015-03-12,AbuDhabi,U.A.E.,54.3773,24.4539,[53.8773 23.9539 54.8773 24.9539],2.41,1.146,3.874,2.845,2.4,1.366,3.713,2.977,224.0,556.0
2015-03-13,AbuDhabi,U.A.E.,54.3773,24.4539,[53.8773 23.9539 54.8773 24.9539],2.41,1.146,3.874,2.845,2.346,1.335,3.575,2.878,224.0,541.0
2015-03-14,AbuDhabi,U.A.E.,54.3773,24.4539,[53.8773 23.9539 54.8773 24.9539],2.41,1.155,3.874,2.848,2.295,1.305,3.526,2.816,223.0,554.0
2015-03-15,AbuDhabi,U.A.E.,54.3773,24.4539,[53.8773 23.9539 54.8773 24.9539],2.41,1.155,3.874,2.848,2.235,1.329,3.447,2.772,223.0,502.0
2015-03-16,AbuDhabi,U.A.E.,54.3773,24.4539,[53.8773 23.9539 54.8773 24.9539],1.902,0.905,3.076,2.335,2.149,1.324,3.337,2.762,193.0,519.0
2015-03-17,AbuDhabi,U.A.E.,54.3773,24.4539,[53.8773 23.9539 54.8773 24.9539],1.995,1.012,3.215,2.423,2.116,1.285,3.412,2.764,187.0,508.0
2015-03-18,AbuDhabi,U.A.E.,54.3773,24.4539,[53.8773 23.9539 54.8773 24.9539],1.995,0.939,3.196,2.372,2.234,1.298,3.509,2.808,212.0,522.0
2015-03-19,AbuDhabi,U.A.E.,54.3773,24.4539,[53.8773 23.9539 54.8773 24.9539],2.017,0.913,3.267,2.427,2.315,1.3,3.689,2.953,203.0,521.0
2015-03-20,AbuDhabi,U.A.E.,54.3773,24.4539,[53.8773 23.9539 54.8773 24.9539],2.017,0.913,3.23,2.422,2.478,1.485,4.145,3.264,209.0,517.0
2015-03-21,AbuDhabi,U.A.E.,54.3773,24.4539,[53.8773 23.9539 54.8773 24.9539],1.995,0.904,3.076,2.234,2.517,1.502,4.129,3.245,207.0,531.0
2015-03-22,AbuDhabi,U.A.E.,54.3773,24.4539,[53.8773 23.9539 54.8773 24.9539],1.995,0.988,3.196,2.373,2.633,1.63,4.247,3.377,227.0,504.0
2015-03-23,AbuDhabi,U.A.E.,54.3773,24.4539,[53.8773 23.9539 54.8773 24.9539],1.861,0.746,3.196,2.246,2.607,1.56,4.261,3.328,197.0,509.0
2015-03-24,AbuDhabi,U.A.E.,54.3773,24.4539,[53.8773 23.9539 54.8773 24.9539],1.758,0.881,2.981,2.201,2.43,1.496,3.946,3.072,238.0,504.0
2015-03-25,AbuDhabi,U.A.E.,54.3773,24.4539,[53.8773 23.9539 54.8773 24.9539],1.824,0.876,3.078,2.26,2.452,1.542,3.963,3.072,249.0,532.0
2015-03-26,AbuDhabi,U.A.E.,54.3773,24.4539,[53.8773 23.9539 54.8773 24.9539],1.882,1.005,3.078,2.331,2.434,1.546,3.964,3.074,237.0,517.0
2015-03-27,AbuDhabi,U.A.E.,54.3773,24.4539,[53.8773 23.9539 54.8773 24.9539],1.861,1.099,3.068,2.328,2.501,1.626,4.01,3.184,240.0,523.0
2015-03-28,AbuDhabi,U.A.E.,54.3773,24.4539,[53.8773 23.9539 54.8773 24.9539],1.861,1.109,2.904,2.282,2.537,1.651,4.032,3.191,267.0,524.0
2015-03-29,AbuDhabi,U.A.E.,54.3773,24.4539,[53.8773 23.9539 54.8773 24.9539],1.93,1.189,3.068,2.39,2.433,1.594,3.871,3.14,290.0,507.0
2015-03-30,AbuDhabi,U.A.E.,54.3773,24.4539,[53.8773 23.9539 54.8773 24.9539],1.93,1.189,3.068,2.39,2.396,1.586,3.984,3.138,290.0,553.0
2015-03-31,AbuDhabi,U.A.E.,54.3773,24.4539,[53.8773 23.9539 54.8773 24.9539],1.997,1.275,3.033,2.422,2.42,1.605,3.911,3.12,316.0,536.0
2015-04-01,AbuDhabi,U.A.E.,54.3773,24.4539,[53.8773 23.9539 54.8773 24.9539],1.946,1.221,2.908,2.299,2.498,1.656,4.153,3.194,288.0,553.0
2015-04-02,AbuDhabi,U.A.E.,54.3773,24.4539,[53.8773 23.9539 54.8773 24.9539],2.181,1.462,3.159,2.591,2.626,1.684,4.271,3.241,280.0,544.0
2015-04-03,AbuDhabi,U.A.E.,54.3773,24.4539,[53.8773 23.9539 54.8773 24.9539],2.281,1.468,3.16,2.682,2.62,1.63,4.317,3.235,294.0,556.0
2015-04-04,AbuDhabi,U.A.E.,54.3773,24.4539,[53.8773 23.9539 54.8773 24.9539],2.245,1.44,3.16,2.675,2.544,1.542,4.102,3.096,305.0,553.0
2015-04-05,AbuDhabi,U.A.E.,54.3773,24.4539,[53.8773 23.9539 54.8773 24.9539],2.281,1.44,3.208,2.701,2.61,1.612,4.129,3.174,312.0,548.0
2015-04-06,AbuDhabi,U.A.E.,54.3773,24.4539,[53.8773 23.9539 54.8773 24.9539],2.141,1.421,3.078,2.589,2.459,1.55,3.976,3.039,311.0,563.0
2015-04-07,AbuDhabi,U.A.E.,54.3773,24.4539,[53.8773 23.9539 54.8773 24.9539],2.078,1.355,3.033,2.503,2.673,1.623,4.253,3.225,330.0,537.0
2015-04-08,AbuDhabi,U.A.E.,54.3773,24.4539,[53.8773 23.9539 54.8773 24.9539],2.266,1.465,3.105,2.601,2.726,1.684,4.338,3.291,289.0,543.0
2015-04-09,AbuDhabi,U.A.E.,54.3773,24.4539,[53.8773 23.9539 54.8773 24.9539],2.458,1.61,3.485,2.909,2.664,1.696,4.382,3.347,301.0,538.0
2015-04-10,AbuDhabi,U.A.E.,54.3773,24.4539,[53.8773 23.9539 54.8773 24.9539],2.501,1.608,3.762,2.988,2.63,1.692,4.271,3.306,311.0,565.0
2015-04-11,AbuDhabi,U.A.E.,54.3773,24.4539,[53.8773 23.9539 54.8773 24.9539],2.513,1.686,3.762,3.03,2.545,1.634,4.336,3.262,299.0,549.0
2015-04-12,AbuDhabi,U.A.E.,54.3773,24.4539,[53.8773 23.9539 54.8773 24.9539],2.52,1.686,3.786,3.042,2.524,1.654,4.256,3.24,302.0,555.0
2015-04-13,AbuDhabi,U.A.E.,54.3773,24.4539,[53.8773 23.9539 54.8773 24.9539],2.513,1.686,3.657,2.973,2.655,1.655,4.233,3.211,306.0,556.0
2015-04-14,AbuDhabi,U.A.E.,54.3773,24.4539,[53.8773 23.9539 54.8773 24.9539],2.52,1.737,3.762,2.99,2.512,1.69,4.112,3.151,330.0,539.0
2015-04-15,AbuDhabi,U.A.E.,54.3773,24.4539,[53.8773 23.9539 54.8773 24.9539],2.513,1.686,3.82,3.044,2.452,1.626,3.972,3.093,304.0,550.0
2015-04-16,AbuDhabi,U.A.E.,54.3773,24.4539,[53.8773 23.9539 54.8773 24.9539],2.513,1.686,3.82,3.044,2.383,1.604,3.841,3.014,304.0,500.0
2015-04-17,AbuDhabi,U.A.E.,54.3773,24.4539,[53.8773 23.9539 54.8773 24.9539],2.465,1.518,3.943,2.9,2.363,1.574,3.696,2.92,278.0,516.0
2015-04-18,AbuDhabi,U.A.E.,54.3773,24.4539,[53.8773 23.9539 54.8773 24.9539],2.465,1.535,3.436,2.746,2.369,1.573,3.555,2.859,277.0,506.0
2015-04-19,AbuDhabi,U.A.E.,54.3773,24.4539,[53.8773 23.9539 54.8773 24.9539],2.423,1.512,3.427,2.681,2.402,1.616,3.575,2.878,292.0,519.0
2015-04-20,AbuDhabi,U.A.E.,54.3773,24.4539,[53.8773 23.9539 54.8773 24.9539],2.465,1.549,3.427,2.694,2.332,1.559,3.448,2.763,285.0,512.0
2015-04-21,AbuDhabi,U.A.E.,54.3773,24.4539,[53.8773 23.9539 54.8773 24.9539],2.462,1.558,3.427,2.699,2.37,1.621,3.552,2.846,292.0,506.0
2015-04-22,AbuDhabi,U.A.E.,54.3773,24.4539,[53.8773 23.9539 54.8773 24.9539],2.513,1.627,3.505,2.811,2.32,1.533,3.252,2.644,292.0,523.0
2015-04-23,AbuDhabi,U.A.E.,54.3773,24.4539,[53.8773 23.9539 54.8773 24.9539],2.513,1.658,3.505,2.797,2.324,1.551,3.276,2.627,311.0,501.0
2015-04-24,AbuDhabi,U.A.E.,54.3773,24.4539,[53.8773 23.9539 54.8773 24.9539],2.368,1.562,3.258,2.472,2.253,1.499,3.203,2.554,270.0,507.0
2015-04-25,AbuDhabi,U.A.E.,54.3773,24.4539,[53.8773 23.9539 54.8773 24.9539],2.439,1.649,3.471,2.674,2.262,1.507,3.28,2.597,280.0,499.0
2015-04-26,AbuDhabi,U.A.E.,54.3773,24.4539,[53.8773 23.9539 54.8773 24.9539],2.406,1.622,3.505,2.658,2.31,1.56,3.294,2.601,286.0,527.0
2015-04-27,AbuDhabi,U.A.E.,54.3773,24.4539,[53.8773 23.9539 54.8773 24.9539],2.568,1.667,3.605,2.845,2.311,1.52,3.367,2.62,267.0,511.0
2015-04-28,AbuDhabi,U.A.E.,54.3773,24.4539,[53.8773 23.9539 54.8773 24.9539],2.569,1.66,3.605,2.86,2.382,1.56,3.409,2.662,243.0,519.0
2015-04-29,AbuDhabi,U.A.E.,54.3773,24.4539,[53.8773 23.9539 54.8773 24.9539],2.624,1.649,3.761,3.014,2.439,1.537,3.653,2.742,246.0,520.0
2015-04-30,AbuDhabi,U.A.E.,54.3773,24.4539,[53.8773 23.9539 54.8773 24.9539],2.612,1.627,3.682,2.974,2.413,1.546,3.632,2.744,272.0,507.0
2015-05-01,AbuDhabi,U.A.E.,54.3773,24.4539,[53.8773 23.9539 54.8773 24.9539],2.612,1.627,3.682,2.974,2.408,1.535,3.578,2.731,272.0,550.0
2015-05-02,AbuDhabi,U.A.E.,54.3773,24.4539,[53.8773 23.9539 54.8773 24.9539],2.624,1.633,3.682,2.972,2.413,1.519,3.628,2.757,274.0,533.0
2015-05-03,AbuDhabi,U.A.E.,54.3773,24.4539,[53.8773 23.9539 54.8773 24.9539],2.568,1.622,4.331,3.101,2.368,1.494,3.667,2.718,244.0,551.0
2015-05-04,AbuDhabi,U.A.E.,54.3773,24.4539,[53.8773 23.9539 54.8773 24.9539],2.881,1.873,4.785,3.41,2.387,1.512,3.643,2.719,242.0,541.0
2015-05-05,AbuDhabi,U.A.E.,54.3773,24.4539,[53.8773 23.9539 54.8773 24.9539],2.889,1.873,4.853,3.495,2.395,1.511,3.674,2.738,260.0,556.0
2015-05-06,AbuDhabi,U.A.E.,54.3773,24.4539,[53.8773 23.9539 54.8773 24.9539],3.096,1.94,4.974,3.631,2.363,1.517,3.54,2.652,249.0,552.0
2015-05-07,AbuDhabi,U.A.E.,54.3773,24.4539,[53.8773 23.9539 54.8773 24.9539],3.124,1.922,5.064,3.651,2.449,1.581,3.663,2.761,256.0,544.0
2015-05-08,AbuDhabi,U.A.E.,54.3773,24.4539,[53.8773 23.9539 54.8773 24.9539],3.124,1.873,5.202,3.681,2.422,1.585,3.643,2.785,259.0,554.0
2015-05-09,AbuDhabi,U.A.E.,54.3773,24.4539,[53.8773 23.9539 54.8773 24.9539],2.881,1.873,4.974,3.555,2.449,1.648,3.744,2.86,280.0,532.0
2015-05-10,AbuDhabi,U.A.E.,54.3773,24.4539,[53.8773 23.9539 54.8773 24.9539],2.727,1.873,4.997,3.541,2.437,1.648,3.716,2.845,242.0,539.0
2015-05-11,AbuDhabi,U.A.E.,54.3773,24.4539,[53.8773 23.9539 54.8773 24.9539],2.438,1.611,4.6,3.182,2.378,1.601,3.73,2.842,254.0,535.0
2015-05-12,AbuDhabi,U.A.E.,54.3773,24.4539,[53.8773 23.9539 54.8773 24.9539],2.371,1.606,4.187,3.034,2.409,1.646,3.717,2.883,266.0,564.0
2015-05-13,AbuDhabi,U.A.E.,54.3773,24.4539,[53.8773 23.9539 54.8773 24.9539],2.375,1.611,3.836,3.004,2.348,1.577,3.68,2.824,283.0,546.0
2015-05-14,AbuDhabi,U.A.E.,54.3773,24.4539,[53.8773 23.9539 54.8773 24.9539],2.271,1.558,3.657,2.833,2.355,1.576,3.594,2.803,286.0,555.0
2015-05-15,AbuDhabi,U.A.E.,54.3773,24.4539,[53.8773 23.9539 54.8773 24.9539],2.257,1.606,3.617,2.828,2.372,1.592,3.611,2.817,286.0,552.0
2015-05-16,AbuDhabi,U.A.E.,54.3773,24.4539,[53.8773 23.9539 54.8773 24.9539],2.227,1.431,3.511,2.764,2.406,1.591,3.538,2.812,313.0,541.0
2015-05-17,AbuDhabi,U.A.E.,54.3773,24.4539,[53.8773 23.9539 54.8773 24.9539],2.216,1.425,3.511,2.764,2.415,1.611,3.532,2.828,311.0,549.0
2015-05-18,AbuDhabi,U.A.E.,54.3773,24.4539,[53.8773 23.9539 54.8773 24.9539],2.216,1.425,3.511,2.764,2.469,1.635,3.681,2.904,311.0,499.0
2015-05-19,AbuDhabi,U.A.E.,54.3773,24.4539,[53.8773 23.9539 54.8773 24.9539],2.039,1.376,2.733,2.47,2.43,1.639,3.469,2.861,281.0,517.0
2015-05-20,AbuDhabi,U.A.E.,54.3773,24.4539,[53.8773 23.9539 54.8773 24.9539],2.017,1.412,2.536,2.256,2.448,1.646,3.449,2.817,276.0,509.0
2015-05-21,AbuDhabi,U.A.E.,54.3773,24.4539,[53.8773 23.9539 54.8773 24.9539],1.982,1.411,2.494,2.162,2.367,1.628,3.473,2.78,294.0,526.0
2015-05-22,AbuDhabi,U.A.E.,54.3773,24.4539,[53.8773 23.9539 54.8773 24.9539],1.983,1.412,2.494,2.112,2.358,1.578,3.421,2.723,285.0,525.0
2015-05-23,AbuDhabi,U.A.E.,54.3773,24.4539,[53.8773 23.9539 54.8773 24.9539],2.002,1.412,2.536,2.166,2.361,1.599,3.406,2.726,288.0,521.0
2015-05-24,AbuDhabi,U.A.E.,54.3773,24.4539,[53.8773 23.9539 54.8773 24.9539],1.963,1.412,2.615,2.297,2.323,1.552,3.331,2.706,288.0,534.0
2015-05-25,AbuDhabi,U.A.E.,54.3773,24.4539,[53.8773 23.9539 54.8773 24.9539],1.963,1.412,2.615,2.279,2.35,1.596,3.315,2.705,307.0,512.0
2015-05-26,AbuDhabi,U.A.E.,54.3773,24.4539,[53.8773 23.9539 54.8773 24.9539],2.147,1.535,2.801,2.434,2.363,1.61,3.355,2.688,271.0,517.0
2015-05-27,AbuDhabi,U.A.E.,54.3773,24.4539,[53.8773 23.9539 54.8773 24.9539],2.224,1.458,3.358,2.613,2.342,1.599,3.408,2.701,287.0,511.0
2015-05-28,AbuDhabi,U.A.E.,54.3773,24.4539,[53.8773 23.9539 54.8773 24.9539],2.209,1.412,3.204,2.587,2.403,1.653,3.368,2.736,292.0,540.0
2015-05-29,AbuDhabi,U.A.E.,54.3773,24.4539,[53.8773 23.9539 54.8773 24.9539],2.108,1.353,2.917,2.471,2.311,1.597,3.222,2.647,282.0,521.0
2015-05-30,AbuDhabi,U.A.E.,54.3773,24.4539,[53.8773 23.9539 54.8773 24.9539],2.021,1.311,2.869,2.46,2.365,1.62,3.274,2.732,286.0,532.0
2015-05-31,AbuDhabi,U.A.E.,54.3773,24.4539,[53.8773 23.9539 54.8773 24.9539],2.155,1.413,3.115,2.524,2.398,1.646,3.436,2.779,286.0,527.0
2015-06-01,AbuDhabi,U.A.E.,54.3773,24.4539,[53.8773 23.9539 54.8773 24.9539],2.224,1.436,3.402,2.697,2.406,1.663,3.48,2.824,311.0,516.0
2015-06-02,AbuDhabi,U.A.E.,54.3773,24.4539,[53.8773 23.9539 54.8773 24.9539],2.224,1.436,3.402,2.697,2.403,1.658,3.453,2.791,311.0,559.0
2015-06-03,AbuDhabi,U.A.E.,54.3773,24.4539,[53.8773 23.9539 54.8773 24.9539],2.263,1.499,3.341,2.666,2.413,1.675,3.459,2.795,335.0,541.0
2015-06-04,AbuDhabi,U.A.E.,54.3773,24.4539,[53.8773 23.9539 54.8773 24.9539],2.428,1.425,3.546,2.809,2.495,1.711,3.555,2.857,305.0,559.0
2015-06-05,AbuDhabi,U.A.E.,54.3773,24.4539,[53.8773 23.9539 54.8773 24.9539],2.631,1.597,3.778,2.948,2.639,1.808,3.671,3.006,302.0,548.0
2015-06-06,AbuDhabi,U.A.E.,54.3773,24.4539,[53.8773 23.9539 54.8773 24.9539],2.663,1.623,3.892,2.99,2.67,1.848,3.707,3.034,318.0,562.0
2015-06-07,AbuDhabi,U.A.E.,54.3773,24.4539,[53.8773 23.9539 54.8773 24.9539],2.663,1.648,3.892,3.036,2.632,1.831,3.685,3.026,310.0,559.0
2015-06-08,AbuDhabi,U.A.E.,54.3773,24.4539,[53.8773 23.9539 54.8773 24.9539],2.681,1.65,3.892,3.027,2.641,1.88,3.681,3.013,315.0,550.0
2015-06-09,AbuDhabi,U.A.E.,54.3773,24.4539,[53.8773 23.9539 54.8773 24.9539],2.726,1.694,3.967,3.109,2.672,1.871,3.678,3.032,317.0,562.0
2015-06-10,AbuDhabi,U.A.E.,54.3773,24.4539,[53.8773 23.9539 54.8773 24.9539],2.726,1.65,4.046,3.135,2.715,1.906,3.736,3.095,337.0,537.0
2015-06-11,AbuDhabi,U.A.E.,54.3773,24.4539,[53.8773 23.9539 54.8773 24.9539],2.726,1.722,3.957,3.117,2.698,1.933,3.673,3.04,298.0,542.0
2015-06-12,AbuDhabi,U.A.E.,54.3773,24.4539,[53.8773 23.9539 54.8773 24.9539],2.675,1.922,3.546,3.067,2.719,1.98,3.622,3.05,313.0,535.0
2015-06-13,AbuDhabi,U.A.E.,54.3773,24.4539,[53.8773 23.9539 54.8773 24.9539],2.794,2.049,3.731,3.176,2.776,2.03,3.659,3.096,319.0,564.0
2015-06-14,AbuDhabi,U.A.E.,54.3773,24.4539,[53.8773 23.9539 54.8773 24.9539],2.875,2.135,3.731,3.195,2.699,1.985,3.579,2.989,308.0,545.0
2015-06-15,AbuDhabi,U.A.E.,54.3773,24.4539,[53.8773 23.9539 54.8773 24.9539],2.744,2.023,3.75,3.153,2.693,1.952,3.571,2.969,311.0,557.0
2015-06-16,AbuDhabi,U.A.E.,54.3773,24.4539,[53.8773 23.9539 54.8773 24.9539],2.663,2.022,3.436,2.991,2.678,1.958,3.525,2.941,313.0,556.0
2015-06-17,AbuDhabi,U.A.E.,54.3773,24.4539,[53.8773 23.9539 54.8773 24.9539],2.671,2.022,3.44,2.982,2.707,1.958,3.571,2.959,338.0,543.0
2015-06-18,AbuDhabi,U.A.E.,54.3773,24.4539,[53.8773 23.9539 54.8773 24.9539],2.726,2.049,3.616,3.055,2.721,1.964,3.607,2.967,314.0,553.0
2015-06-19,AbuDhabi,U.A.E.,54.3773,24.4539,[53.8773 23.9539 54.8773 24.9539],2.726,2.049,3.616,3.055,2.703,1.981,3.624,2.975,314.0,501.0
2015-06-20,AbuDhabi,U.A.E.,54.3773,24.4539,[53.8773 23.9539 54.8773 24.9539],2.632,1.99,3.555,3.009,2.705,1.967,3.625,2.943,284.0,520.0
2015-06-21,AbuDhabi,U.A.E.,54.3773,24.4539,[53.8773 23.9539 54.8773 24.9539],2.726,2.022,3.342,2.933,2.721,1.953,3.569,2.916,281.0,511.0
2015-06-22,AbuDhabi,U.A.E.,54.3773,24.4539,[53.8773 23.9539 54.8773 24.9539],2.675,2.023,3.331,2.875,2.76,1.987,3.72,3.003,297.0,525.0